Hermosillo, Mexico

11:31 PM MST on February 06, 2016 (GMT -0700)
Gen Ignacio Pesqueira Garcia | | Change Station
CLOSE
Current Station
Airport
Location: Hermosillo,
Elevation: 627 ft
Nearby Weather Stations

Elev 627 ft 29.09 °N, 111.05 °W | Updated 2 hours ago

Mostly Cloudy
Mostly Cloudy
63 °F
Feels Like 63 °F
N
0
Wind Variable Wind from North

Today
High -- | Low -- °F
--% Chance of Precip.
Yesterday
High -- | Low -- °F
Precip. -- in
Pressure 30.09 in
Visibility 10.0 miles
Clouds Mostly Cloudy 20000 ft
Dew Point 32 °F
Humidity 32%
Rainfall 0.00 in
Snow Depth Not available.
7:10 AM 6:06 PM
Waning Crescent, 2% visible
METAR MMHO 070342Z 00000KT 10SM BKN200 17/00 A3009 RMK 8/008 HZY
Pressure 30.09 in
Visibility 10.0 miles
Clouds Mostly Cloudy 20000 ft
Dew Point 32 °F
Humidity 32%
Rainfall 0.00 in
Snow Depth Not available.
7:10 AM 6:06 PM
Waning Crescent, 2% visible
METAR MMHO 070342Z 00000KT 10SM BKN200 17/00 A3009 RMK 8/008 HZY

10-Day Weather Forecast

No radar image for this location.
×

Almanac

Astronomy

Feb. 06, 2016 Rise Set
Actual Time
Civil Twilight
Nautical Twilight
Astronomical Twilight
Moon
Length of Visible Light
Length of Day
Tomorrow will be .
, % of the Moon is Illuminated

Today's Extremes

Country Highs Country Lows

Community

WunderPhotos

Upload Photos

1,891,174 photos uploaded!

WunderBlog® & News

Nearby

Air Quality

  Air Quality AQ Index Pollutant
Not available.

Snow Depth

Station Depth Elevation

Earthquake Activity

City Distance Mag. Time & Date
Minimum magnitude displayed is 2.5.

Coastal Water Temperatures

Place Temperature

Stations

Nearby Weather Stations

Station Location Temp. Windchill Dew Point Humidity Wind Precip. Elev Updated Type